Regional Weather Roundup
Issued by NWS

Home | Current Version | Previous Version | Text Only | Print | Product List | Glossary On
Versions: 1 2 3 4 5 6 7 8 9 10 11 12 13 14 15 16 17 18 19 20 21 22 23 24 25 26 27 28 29 30 31 32 33 34 35 36 37 38 39 40 41 42 43 44 45 46 47 48 49 50
000
ASUS45 KREV 202010
RWRNV
NEVADA REGIONAL WEATHER ROUNDUP
NATIONAL WEATHER SERVICE RENO NV
1200 PM PST SAT DEC 20 2014

NOTE: "FAIR" INDICATES FEW OR NO CLOUDS BELOW 12,000 FEET WITH NO
SIGNIFICANT WEATHER AND/OR OBSTRUCTIONS TO VISIBILITY.

NVZ001-003-004-202100-
WESTERN NEVADA

CITY           SKY/WX    TMP DP  RH WIND       PRES   REMARKS
RENO           CLOUDY    47  38  71 E9        30.07F
CARSON CITY    FAIR      48  32  53 W17G26    30.08F
MINDEN         CLOUDY    48  36  61 W8        30.10
SLIDE MTN        N/A     27  25  93 W32         N/A
PYRAMID LAKE     N/A     48 N/A N/A S6          N/A
FALLON         CLOUDY    47  38  71 S10       30.09F
LOVELOCK       CLOUDY    42  39  89 S3        30.09F
HAWTHORNE      SUNNY     45  32  61 CALM      30.11F
$$

NVZ002-CAZ072-073-202100-
NORTHERN AND CENTRAL SIERRA

CITY           SKY/WX    TMP DP  RH WIND       PRES   REMARKS
S. LAKE TAHOE  CLOUDY    39  33  79 SW12      30.13F
TRUCKEE        CLOUDY    39  34  81 SW7       30.14F
SQUAW VLY 8000 NOT AVBL
SUSANVILLE     CLOUDY    46  36  66 W7        30.08S
BLUE CANYON    CLOUDY    37  35  92 S9        30.19F FOG
MAMMOTH LAKES  PTSUNNY   41  30  65 SE9       30.14S
BRIDGEPORT     CLOUDY    44  29  55 S12G24    30.11F
$$

NVZ030-031-036-202100-
NORTHERN NEVADA

CITY           SKY/WX    TMP DP  RH WIND       PRES   REMARKS
ELKO           CLOUDY    36  34  92 CALM      30.07F
WINNEMUCCA     LGT RAIN  39  38  96 S9        30.09S
WENDOVER       CLOUDY    37  30  75 E5        30.08F
$$

NVZ035-037-202100-
CENTRAL NEVADA

CITY           SKY/WX    TMP DP  RH WIND       PRES   REMARKS
ELY            CLOUDY    39  28  64 NE3       30.10F
EUREKA           N/A     36  32  85 S3        30.09F
$$

NVZ013-014-202100-
SOUTH CENTRAL NEVADA

CITY           SKY/WX    TMP DP  RH WIND       PRES   REMARKS
TONOPAH        CLOUDY    39  30  70 CALM      30.14F
$$

NVZ017-020-022-202100-
SOUTHERN NEVADA

CITY           SKY/WX    TMP DP  RH WIND       PRES   REMARKS
LAS VEGAS      PTSUNNY   54  37  52 S5        30.11F
N. LAS VEGAS   MOSUNNY   52  37  56 CALM      30.14F
NELLIS AFB     MOSUNNY   53  40  61 SE1       30.15F
HENDERSON      MOSUNNY   53  38  56 CALM      30.16F
MERCURY        PTSUNNY   49  37  63 SE3       30.13F
$$



USA.gov is the U.S. government's official web portal to all federal, state and local government web resources and services.